Location: Unspecified
(0.0000°N, 0.0000°E)
Time: 22:50:54
(UTC+00:00)

Courier 1B Rocket - Visible Passes

Search period start: 01 October 2020 00:00
Search period end: 11 October 2020 00:00
Orbit: 920 x 1202 km, 28.2° (Epoch: 01 October)

Date Brightness Start Highest point End Pass type
(mag) Time Alt. Az. Time Alt. Az. Time Alt. Az.
01 Oct 7.1 03:15:44 15° NNE 03:15:44 15° NNE 03:16:59 10° NNE visible
02 Oct 6.9 04:05:05 14° NNW 04:05:05 14° NNW 04:07:17 10° N visible
05 Oct 7.5 20:07:01 10° S 20:08:36 12° S 20:08:36 12° S visible
06 Oct 7.7 20:57:06 10° SSW 20:57:42 12° SSW 20:57:42 12° SSW visible
07 Oct 7.1 19:56:44 10° SSW 20:00:27 17° SSE 20:00:27 17° SSE visible
08 Oct 7.3 18:57:00 10° S 18:59:54 12° SSE 19:02:50 10° SE visible
08 Oct 7.4 20:47:36 10° SW 20:49:36 18° SSW 20:49:36 18° SSW visible
09 Oct 6.7 19:47:00 10° SSW 19:52:25 25° SSE 19:52:25 25° SSE visible
10 Oct 7.0 18:46:46 10° SSW 18:51:33 18° SSE 18:55:16 13° SE visible
10 Oct 6.9 20:38:21 10° SW 20:41:38 27° SW 20:41:38 27° SW visible
